EW4304 Weather Reports


Display with metric or nautical units.
time (UTC)temp
F
wind
direction
speed
MPH
gust
MPH
rain 1hr
in
rain 24hr
in
rain mn
in
humidity
%
barometer
mb
20260508224551 61 207 0.0 0.0 0.00 0.00 0.00 70 1009.0
20260508223050 62 207 0.0 0.0 0.00 0.00 0.00 66 1008.8
20260508221550 64 207 0.0 0.0 0.00 0.00 0.00 63 1008.9
20260508220044 64 207 0.0 0.0 0.00 0.00 0.00 56 1008.9
20260508214558 65 207 0.0 0.0 0.00 0.00 0.00 54 1008.9
20260508213042 65 188 0.0 0.0 0.00 0.00 0.00 51 1009.0
20260508211541 65 209 0.0 1.0 0.00 0.00 0.00 50 1009.1
20260508210041 65 168 0.0 5.0 0.00 0.00 0.00 49 1009.2
20260508204538 65 182 1.0 5.0 0.00 0.00 0.00 49 1009.4
20260508203036 66 167 1.0 7.0 0.00 0.00 0.00 49 1009.7
20260508201533 66 186 3.0 7.0 0.00 0.00 0.00 48 1009.9
20260508200040 65 173 2.0 5.0 0.00 0.00 0.00 49 1010.0
20260508194532 65 189 1.0 7.0 0.00 0.00 0.00 47 1010.1
20260508193040 66 260 2.0 6.0 0.00 0.00 0.00 46 1010.1
20260508191534 66 155 1.0 14.0 0.00 0.00 0.00 44 1010.4
20260508190046 68 192 5.0 14.0 0.00 0.00 0.00 44 1010.6
20260508184531 66 188 4.0 13.0 0.00 0.00 0.00 47 1010.8
20260508183033 66 205 4.0 11.0 0.00 0.00 0.00 48 1011.1
20260508181520 66 231 4.0 9.0 0.00 0.00 0.00 49 1011.3
20260508180018 66 293 2.0 9.0 0.00 0.00 0.00 50 1011.6
20260508174515 65 209 5.0 11.0 0.00 0.00 0.00 49 1011.8
20260508173015 64 221 5.0 11.0 0.00 0.00 0.00 49 1012.0
20260508171517 65 219 3.0 10.0 0.00 0.00 0.00 48 1012.3
20260508170012 67 194 5.0 11.0 0.00 0.00 0.00 47 1012.4
20260508164518 65 138 8.0 18.0 0.00 0.00 0.00 47 1012.6
20260508163012 65 269 4.0 15.0 0.00 0.00 0.00 48 1012.9
20260508161507 65 167 6.0 16.0 0.00 0.00 0.00 48 1013.0
20260508160002 65 226 4.0 13.0 0.00 0.00 0.00 48 1013.1
20260508154601 64 214 7.0 13.0 0.00 0.00 0.00 49 1013.1
20260508153059 64 207 2.0 18.0 0.00 0.00 0.00 51 1013.3
20260508151552 62 202 3.0 17.0 0.00 0.00 0.00 52 1013.5
20260508150048 60 202 3.0 10.0 0.00 0.00 0.00 56 1013.6
20260508144551 58 205 0.0 9.0 0.00 0.00 0.00 58 1013.6
20260508143047 58 208 3.0 10.0 0.00 0.00 0.00 58 1013.9
20260508141553 58 202 3.0 10.0 0.00 0.00 0.00 57 1014.0
20260508140038 57 207 1.0 7.0 0.00 0.00 0.00 58 1014.2
20260508134536 56 223 4.0 11.0 0.00 0.00 0.00 58 1014.3
20260508133032 55 171 1.0 7.0 0.00 0.00 0.00 61 1014.3
20260508131528 54 207 3.0 7.0 0.00 0.00 0.00 63 1014.3
20260508130032 52 163 0.0 1.0 0.00 0.00 0.00 68 1014.2
20260508124518 50 138 0.0 0.0 0.00 0.00 0.00 72 1014.1
20260508123017 49 129 0.0 0.0 0.00 0.00 0.00 74 1014.1
20260508121513 48 132 0.0 0.0 0.00 0.00 0.00 76 1014.1
20260508120012 46 121 0.0 0.0 0.00 0.00 0.00 79 1014.3
20260508114511 45 202 0.0 0.0 0.00 0.00 0.00 81 1014.1
20260508113011 45 202 0.0 0.0 0.00 0.00 0.00 83 1013.9
20260508111510 44 202 0.0 0.0 0.00 0.00 0.00 84 1013.8
20260508110009 44 202 0.0 0.0 0.00 0.00 0.00 85 1013.7
20260508104507 43 202 0.0 0.0 0.00 0.00 0.00 87 1013.7
20260508103010 43 202 0.0 0.0 0.00 0.00 0.00 88 1013.5
20260508101505 43 202 0.0 0.0 0.00 0.00 0.00 89 1013.6
20260508100005 42 202 0.0 0.0 0.00 0.00 0.00 89 1013.7
20260508094503 42 202 0.0 0.0 0.00 0.00 0.00 88 1013.6
20260508093005 41 202 0.0 0.0 0.00 0.00 0.00 87 1013.8
20260508091507 41 202 0.0 0.0 0.00 0.00 0.00 87 1013.9
20260508090008 41 202 0.0 0.0 0.00 0.00 0.00 87 1013.9
20260508084501 41 202 0.0 0.0 0.00 0.00 0.00 87 1013.9
20260508083105 41 202 0.0 0.0 0.00 0.00 0.00 85 1013.7
20260508081610 41 202 0.0 0.0 0.00 0.00 0.00 84 1013.9
20260508080056 42 202 0.0 0.0 0.00 0.00 0.00 82 1013.8
20260508074553 42 202 0.0 0.0 0.00 0.00 0.00 81 1013.6
20260508073050 43 202 0.0 0.0 0.00 0.00 0.00 78 1013.6
20260508071548 44 202 0.0 0.0 0.00 0.00 0.00 77 1013.7
20260508070044 45 202 0.0 0.0 0.00 0.00 0.00 74 1014.0
20260508064543 45 202 0.0 0.0 0.00 0.00 0.00 73 1014.0
20260508063056 45 202 0.0 0.0 0.00 0.00 0.00 73 1014.2
20260508061539 45 202 0.0 0.0 0.00 0.00 0.00 73 1014.3
20260508060038 45 202 0.0 0.0 0.00 0.00 0.00 74 1014.3
20260508054536 46 202 0.0 0.0 0.00 0.00 0.00 72 1014.3
20260508053033 46 202 0.0 0.0 0.00 0.00 0.00 70 1014.4
20260508051532 46 202 0.0 0.0 0.00 0.00 0.00 70 1014.4
20260508050036 46 202 0.0 0.0 0.00 0.00 0.00 70 1014.3
20260508044530 46 202 0.0 0.0 0.00 0.00 0.00 71 1014.3
20260508043034 47 202 0.0 0.0 0.00 0.00 0.00 71 1014.2
20260508041526 47 202 0.0 0.0 0.00 0.00 0.00 71 1014.1
20260508040033 48 202 0.0 0.0 0.00 0.00 0.00 68 1014.1
20260508034523 49 202 0.0 0.0 0.00 0.00 0.00 65 1014.1
20260508033022 49 202 0.0 0.0 0.00 0.00 0.00 64 1014.1
20260508031521 50 202 0.0 0.0 0.00 0.00 0.00 62 1014.0
20260508030025 50 203 0.0 0.0 0.00 0.00 0.00 62 1014.1
20260508024520 50 203 0.0 0.0 0.00 0.00 0.00 62 1014.0
20260508023020 49 180 0.0 0.0 0.00 0.00 0.00 64 1013.8
20260508021521 49 223 0.0 0.0 0.00 0.00 0.00 68 1014.0
20260508020027 49 223 0.0 0.0 0.00 0.00 0.00 69 1013.8
20260508014521 50 223 0.0 0.0 0.00 0.00 0.00 68 1013.9
20260508013018 50 223 0.0 0.0 0.00 0.00 0.00 67 1013.9
20260508011519 51 223 0.0 0.0 0.00 0.00 0.00 65 1013.9
20260508010018 52 223 0.0 0.0 0.00 0.00 0.00 61 1013.9
20260508004518 54 223 0.0 0.0 0.00 0.00 0.00 58 1013.9
20260508003017 55 223 0.0 0.0 0.00 0.00 0.00 54 1013.8
20260508001535 57 223 0.0 0.0 0.00 0.00 0.00 48 1013.7
20260508000016 58 223 0.0 0.0 0.00 0.00 0.00 45 1013.6
20260507234517 59 208 0.0 0.0 0.00 0.00 0.00 42 1013.5
20260507233017 59 172 0.0 0.0 0.00 0.00 0.00 41 1013.4
20260507231514 59 182 0.0 0.0 0.00 0.00 0.00 40 1013.6
20260507230013 60 235 1.0 5.0 0.00 0.00 0.00 40 1013.5